Location: Agadir Irigdalene
(31.2522°N, 8.7797°W)
Time: 06:28:50
(UTC+00:00)

Cosmos 1812 - Pass Details

Date: 01 December 2020
Orbit: 517 x 520 km, 82.5° (Epoch: 16 January)

Event Time Altitude Azimuth Distance (km) Brightness Sun altitude
Rises 19:03:04 0° 196° (SSW) 2,623 6.7 -19.1°
Reaches altitude 10° 19:05:14 10° 202° (SSW) 1,740 5.8 -19.5°
Maximum altitude 19:08:56 49° 278° (W) 677 3.6 -20.3°
Drops below altitude 10° 19:12:40 10° 354° (N) 1,750 5.3 -21.1°
Enters shadow 19:12:43 10° 354° (N) 1,770 5.3 -21.1°
